189P/NEAT (2012)

Japanese version
Home page
Updated on December 16, 2012

---------------------------------------------------------------------

* Profile

* Pictures

* Orbital Elements

Epoch 2012 July 12.0 TT = JDT 2456120.5
T 2012 July 20.42827 TT                                 MPC
q   1.1772255            (2000.0)            P               Q
n   0.19755743     Peri.   15.35505     +0.44568153     +0.82796049
a   2.9197151      Node   282.15333     -0.85362797     +0.27856074
e   0.5968012      Incl.   20.37542     -0.26960575     +0.48670869
P   4.99
From 666 observations 2002 July 30-2012 June 25, mean residual 0".7.
     Nongravitational parameters A1 = -0.06, A2 = -0.0049.

* Finding Charts

* Magnitudes Graph

        m1 = 17.0 + 5 log d + 17.5 log r(t - 35)

        * Green curve is:  m1 = 18.5 + 5 log d + 10.0 log r

---------------------------------------------------------------------

The orbital elements are published on M.P.E.C. 2012-N02.
The charts are made with StellaNavigator Ver.8 (AstroArts).
The magnitudes graphs are made with Comet for Windows.

---------------------------------------------------------------------

Copyright(C) Seiichi Yoshida (comet@aerith.net). All rights reserved.